This is the latest recevied weather packets stored in our database for station/object EA7OC-10. If no packets are shown the sender has not sent any weather packets the latest 10 day(s).
| Time | Temp. | Humidity | Pressure | Rain* | Wind** | Luminosity | Snow |
|---|---|---|---|---|---|---|---|
| 1777721145 | 32.22° C | 33% | 1018.7 hPa | - | - | - | - |
| 1777720245 | 31.11° C | 33% | 1018.8 hPa | - | - | - | - |
| 1777719345 | 31.11° C | 32% | 1019 hPa | - | - | - | - |
| 1777718445 | 32.22° C | 33% | 1019.2 hPa | - | - | - | - |
| 1777717541 | 31.67° C | 33% | 1019.2 hPa | - | - | - | - |
| 1777716641 | 31.67° C | 32% | 1019.5 hPa | - | - | - | - |
| 1777715740 | 32.22° C | 33% | 1019.4 hPa | - | - | - | - |
| 1777714837 | 32.22° C | 34% | 1019.5 hPa | - | - | - | - |
| 1777713937 | 31.11° C | 34% | 1019.5 hPa | - | - | - | - |
| 1777713037 | 30° C | 34% | 1019.6 hPa | - | - | - | - |
| 1777712134 | 30° C | 33% | 1019.5 hPa | - | - | - | - |
| 1777711234 | 30° C | 35% | 1019.5 hPa | - | - | - | - |
| 1777710334 | 28.33° C | 34% | 1019.5 hPa | - | - | - | - |
| 1777709433 | 26.67° C | 35% | 1019.7 hPa | - | - | - | - |
| 1777708533 | 25° C | 34% | 1019.3 hPa | - | - | - | - |
| 1777707633 | 25° C | 34% | 1019.2 hPa | - | - | - | - |
| 1777706732 | 25° C | 34% | 1019.2 hPa | - | - | - | - |
| 1777705832 | 23.89° C | 35% | 1019.1 hPa | - | - | - | - |
| 1777704931 | 22.22° C | 34% | 1019 hPa | - | - | - | - |
| 1777704031 | 21.11° C | 34% | 1019 hPa | - | - | - | - |
| 1777703131 | 20.56° C | 33% | 1019 hPa | - | - | - | - |
| 1777702231 | 20° C | 34% | 1019 hPa | - | - | - | - |
| 1777701329 | 18.89° C | 33% | 1018.8 hPa | - | - | - | - |
| 1777700429 | 18.89° C | 33% | 1018.7 hPa | - | - | - | - |
| 1777699529 | 18.89° C | 32% | 1018.5 hPa | - | - | - | - |
* Rain since midnight (hover to see other rain measurements)
** Current wind speed in m/s (hover to see current wind gust speed)